LiveATC.Net - Listen to live air traffic control over the Internet!


ICAO: KBOK  IATA: BOK   Airport: Brookings Airport
City: Brookings   State/Province: Oregon
Country: United States   Continent: North America
KBOK METAR Weather: KBOK 031456Z AUTO 28004KT 10SM OVC004 14/14 A3017 RMK AO2 SLP216 T01440139 53004
KBOK Flight Activity (FlightAware)
KBOK Webcam:  (Airport Webcams) 
KBOK Airport Info   (iFlightPlanner)
KBOK VFR Sectional Chart   (iFlightPlanner) 
KBOK IFR Low Chart   (iFlightPlanner) 

KBOK CTAF
Feed Status: DOWN
Last heard on: 2019-07-30 22:57:39 (369 days 16 hours 45 minutes ago)
Archive Access: KBOK CTAF
FacilityFrequency
Brookings CTAF122.800

NOTICE

Unauthorized use prohibited. See LiveATC.net Terms of Service


Airport/ARTCC Code
Frequency Search
(e.g., 124.400, 128.75)
Site-wide search
 


Browse Feeds
Top 50 Feeds
Coverage Map
Bad Weather Areas

LiveATC FAQ
Offer LiveATC feed
Contact LiveATC.net
Press Inquiries

LiveATC on iPhone
LiveATC on Android

Windows Phone
Windows 8/10

LiveATC Mobile
(Mobile browser)

ATC Audio Archives
Interesting Recordings

LiveATC Forums


Home Page
About LiveATC.net
Make a Donation
Terms of Use
Privacy Policy

Canadian Air Freqs

AIRMETs/SIGMETs

FAA Airport Status
Nat'l Airspace Status
Arrival Demand Charts


Server Software By:
Icecast.org
Liquidsoap